Dushanbe, Tajikistan

2:10 AM +05 on April 27, 2018 (GMT +0500)
Dushanbe

Weather History for UTDD - April, 2018

Change the Weather History Date:

Monday, April 16, 2018

  Actual Average Record
Temperature  
Mean Temperature 54 °F -  
Max Temperature 59 °F - - ()
Min Temperature 49 °F - - ()
Degree Days  
Heating Degree Days 11    
Growing Degree Days 4 (Base 50)    
Moisture  
Dew Point 52 °F    
Average Humidity 87    
Maximum Humidity 96    
Minimum Humidity 72    
Precipitation  
Precipitation 0.31 in 0.11 in - ()
Sea Level Pressure  
Sea Level Pressure 30.06 in    
Wind  
Wind Speed 5 mph ()    
Max Wind Speed 13 mph    
Max Gust Speed -    
Visibility 5.5 miles    
Events Rain    
T = Trace of Precipitation, MM = Missing Value Source: Averaged Metar Reports

Daily Weather History Graph

Daily Weather History Graph

Search for Another Location

Airport or City:

Astronomy

Apr. 16, 2018 Rise Set
Actual Time 5:47 AM +05 7:02 PM +05
Civil Twilight 5:20 AM +05 7:29 PM +05
Nautical Twilight 4:47 AM +05 8:02 PM +05
Astronomical Twilight 4:13 AM +05 8:36 PM +05
Moon 6:13 AM +05 (4/16) 7:22 PM +05 (4/16)
Length of Visible Light 14h 09m
Length of Day
13h 14m
New Moon, 0% of the Moon is Illuminated
Apr 16
New Moon
Apr 23
First Quarter
Apr 30
Full
May 8
Last Quarter
May 15
New

Hourly Weather History & Observations

Time (+05) Temp. Dew Point Humidity Pressure Visibility Wind Dir Wind Speed Gust Speed Precip Events Conditions
12:00 AM 59.0 °F 55.4 °F 88% 29.98 in 5.6 mi NE 6.7 mph - N/A Rain Light Rain Showers
12:30 AM 59.0 °F 55.4 °F 88% 29.98 in 6.2 mi NE 4.5 mph - N/A Rain Light Rain Showers
1:00 AM 59.0 °F 55.4 °F 88% 30.01 in 6.2 mi Variable 2.2 mph - N/A Rain Light Rain Showers
1:30 AM 57.2 °F 55.4 °F 94% 30.01 in 6.2 mi West 2.2 mph - N/A Rain Light Rain Showers
2:00 AM 55 °F 54 °F 96% 29.89 in - Calm Calm - - Rain Light Rain Showers
2:00 AM 57.2 °F 55.4 °F 94% 30.01 in 4.3 mi West 6.7 mph - N/A Rain Light Rain Showers
2:30 AM 57.2 °F 55.4 °F 94% 30.01 in 6.2 mi WNW 8.9 mph - N/A Rain Light Rain Showers
3:00 AM 57.2 °F 55.4 °F 94% 30.01 in 6.2 mi WNW 8.9 mph - N/A   Mostly Cloudy
3:30 AM 55.4 °F 53.6 °F 94% 30.01 in 6.2 mi NW 6.7 mph - N/A   Mostly Cloudy
4:00 AM 55.4 °F 53.6 °F 94% 30.01 in 5.0 mi WNW 8.9 mph - N/A Rain Light Rain
4:30 AM 55.4 °F 51.8 °F 88% 30.01 in 6.2 mi West 11.2 mph - N/A Rain Light Rain
5:00 AM 53 °F 52 °F 93% 29.93 in - West 8.9 mph - -   Partly Cloudy
5:00 AM 53.6 °F 50.0 °F 88% 30.01 in 6.2 mi West 13.4 mph - N/A Rain Light Rain
5:30 AM 51.8 °F 50.0 °F 94% 30.01 in 6.2 mi West 13.4 mph - N/A Rain Light Rain Showers
6:00 AM 51.8 °F 50.0 °F 94% 30.04 in 2.5 mi West 8.9 mph - N/A Rain Light Rain Showers
6:30 AM 51.8 °F 50.0 °F 94% 30.06 in 3.7 mi WSW 6.7 mph - N/A Rain Light Rain Showers
7:00 AM 51.8 °F 50.0 °F 94% 30.06 in - West 6.7 mph - N/A Rain Light Rain Showers
7:30 AM 51.8 °F 50.0 °F 94% 30.06 in - West 6.7 mph - N/A Rain Light Rain Showers
8:00 AM 51.8 °F 50.0 °F 94% 30.09 in 4.3 mi Variable 4.5 mph - N/A Rain Light Rain Showers
8:30 AM 51.8 °F 50.0 °F 94% 30.09 in - Variable 4.5 mph - N/A Rain Light Rain
9:00 AM 51.8 °F 50.0 °F 94% 30.12 in 1.6 mi West 4.5 mph - N/A Rain Light Rain
9:30 AM 51.8 °F 50.0 °F 94% 30.12 in 1.6 mi WNW 6.7 mph - N/A Rain Light Rain
10:00 AM 51.8 °F 50.0 °F 94% 30.15 in 3.1 mi West 4.5 mph - N/A Rain Light Rain
10:30 AM 51.8 °F 50.0 °F 94% 30.15 in 5.6 mi Variable 2.2 mph - N/A   Overcast
11:00 AM 52 °F 51 °F 96% 29.95 in 6 mi Calm Calm - - Rain Light Rain Showers
11:00 AM 51.8 °F 50.0 °F 94% 30.15 in 3.7 mi Variable 2.2 mph - N/A Rain Light Rain
11:30 AM 53.6 °F 50.0 °F 88% 30.15 in 5.0 mi WSW 4.5 mph - N/A Rain Light Rain
12:00 PM 53.6 °F 51.8 °F 94% 30.15 in 5.6 mi Variable 4.5 mph - N/A Rain Light Rain
12:30 PM 53.6 °F 50.0 °F 88% 30.15 in 4.3 mi Variable 2.2 mph - N/A Rain Light Rain
1:00 PM 53.6 °F 50.0 °F 88% 30.15 in 5.0 mi Variable 2.2 mph - N/A   Overcast
1:30 PM 55.4 °F 51.8 °F 88% 30.15 in 6.2 mi Variable 2.2 mph - N/A   Overcast
2:00 PM 54 °F 52 °F 91% 29.98 in 6 mi Calm Calm - - Rain Light Rain Showers
2:00 PM 55.4 °F 50.0 °F 82% 30.12 in 6.2 mi Variable 2.2 mph - N/A   Overcast
2:30 PM 57.2 °F 51.8 °F 82% 30.12 in 6.2 mi Variable 2.2 mph - N/A   Overcast
3:00 PM 57.2 °F 51.8 °F 82% 30.12 in 6.2 mi Variable 4.5 mph - N/A   Overcast
3:30 PM 57.2 °F 51.8 °F 82% 30.09 in 6.2 mi Variable 2.2 mph - N/A   Overcast
4:00 PM 57.2 °F 51.8 °F 82% 30.09 in 6.2 mi Variable 4.5 mph - N/A   Overcast
4:30 PM 59.0 °F 51.8 °F 77% 30.09 in 6.2 mi Variable 4.5 mph - N/A   Mostly Cloudy
5:00 PM 58 °F 52 °F 73% 29.96 in 12 mi Calm Calm - -   Partly Cloudy
5:00 PM 59.0 °F 51.8 °F 77% 30.09 in 6.2 mi Variable 2.2 mph - N/A   Scattered Clouds
5:30 PM 60.8 °F 51.8 °F 72% 30.06 in 6.2 mi Variable 2.2 mph - N/A   Partly Cloudy
6:00 PM 59.0 °F 51.8 °F 77% 30.06 in 6.2 mi Variable 2.2 mph - N/A   Partly Cloudy
6:30 PM 59.0 °F 50.0 °F 72% 30.06 in 6.2 mi South 4.5 mph - N/A   Partly Cloudy
7:00 PM 57.2 °F 51.8 °F 82% 30.06 in 6.2 mi SSW 4.5 mph - N/A   Partly Cloudy
7:30 PM 55.4 °F 51.8 °F 88% 30.06 in 6.2 mi Variable 2.2 mph - N/A   Scattered Clouds
8:00 PM 53 °F 49 °F 80% 29.98 in - Calm Calm - -   Partly Cloudy
8:00 PM 57.2 °F 51.8 °F 82% 30.09 in 6.2 mi Variable 2.2 mph - N/A   Mostly Cloudy
8:30 PM 57.2 °F 51.8 °F 82% 30.09 in 6.2 mi Variable 2.2 mph - N/A   Mostly Cloudy
9:00 PM 57.2 °F 51.8 °F 82% 30.09 in 5.0 mi NW 4.5 mph - N/A   Mostly Cloudy
9:30 PM 57.2 °F 51.8 °F 82% 30.09 in 6.2 mi Variable 2.2 mph - N/A   Overcast
10:00 PM 57.2 °F 51.8 °F 82% 30.09 in 5.0 mi SSW 2.2 mph - N/A   Mostly Cloudy
10:30 PM 57.2 °F 51.8 °F 82% 30.09 in 4.3 mi Variable 2.2 mph - N/A   Mostly Cloudy
11:00 PM 52 °F 47 °F 79% 29.97 in - Calm Calm - -   Overcast
11:00 PM 57.2 °F 53.6 °F 88% 30.09 in 5.0 mi Variable 2.2 mph - N/A   Mostly Cloudy
11:30 PM 57.2 °F 53.6 °F 88% 30.09 in 5.0 mi SW 4.5 mph - N/A   Mostly Cloudy